Location: Bourg-d�Oueil
(42.8588°N, 0.4991°E)
Time: 18:27:39
(UTC+00:00)

Cosmos 2228 - Pass Details

Date: 16 June 2021
Orbit: 588 x 618 km, 82.5° (Epoch: 30 July)

Event Time Altitude Azimuth Distance (km) Brightness Sun altitude
Rises 22:54:12 0° 349° (N) 2,902 8.0 -22.1°
Reaches altitude 10° 22:56:26 10° 348° (NNW) 1,992 6.8 -22.2°
Maximum altitude 23:00:50 72° 264° (W) 652 3.1 -22.4°
Enters shadow 23:01:20 64° 215° (SW) 687 3.0 -22.4°
